| time (UTC) | temp F | wind direction | speed MPH | gust MPH | rain 1hr in | rain 24hr in | rain mn in | humidity % | barometer mb |
| 20260906022504 | 77 | 227 | 0.0 | 4.0 | 0.00 | 0.00 | 0.00 | 42 | 1014.3 |
| 20260906022003 | 77 | 189 | 0.0 | 5.0 | 0.00 | 0.00 | 0.00 | 42 | 1014.3 |
| 20260906021505 | 77 | 211 | 2.0 | 6.0 | 0.00 | 0.00 | 0.00 | 41 | 1014.3 |
| 20260906021003 | 77 | 212 | 4.0 | 6.0 | 0.00 | 0.00 | 0.00 | 40 | 1014.3 |
| 20260906020503 | 78 | 215 | 3.0 | 5.0 | 0.00 | 0.00 | 0.00 | 40 | 1014.3 |
| 20260906020002 | 78 | 205 | 1.0 | 7.0 | 0.00 | 0.00 | 0.00 | 42 | 1014.3 |
| 20260906015503 | 78 | 190 | 5.0 | 7.0 | 0.00 | 0.00 | 0.00 | 41 | 1014.3 |
| 20260906015002 | 78 | 171 | 2.0 | 7.0 | 0.00 | 0.00 | 0.00 | 41 | 1014.3 |
| 20260906014502 | 79 | 217 | 3.0 | 7.0 | 0.00 | 0.00 | 0.00 | 40 | 1014.3 |
| 20260906014000 | 79 | 221 | 4.0 | 7.0 | 0.00 | 0.00 | 0.00 | 39 | 1014.3 |
| 20260906013700 | 79 | 203 | 5.0 | 7.0 | 0.00 | 0.00 | 0.00 | 39 | 1014.3 |
| 20260906013109 | 79 | 148 | 1.0 | 7.0 | 0.00 | 0.00 | 0.00 | 39 | 1014.4 |
| 20260906012559 | 79 | 172 | 4.0 | 10.0 | 0.00 | 0.00 | 0.00 | 39 | 1014.5 |
| 20260906012058 | 79 | 148 | 4.0 | 10.0 | 0.00 | 0.00 | 0.00 | 38 | 1014.5 |
| 20260906011559 | 79 | 153 | 4.0 | 8.0 | 0.00 | 0.00 | 0.00 | 39 | 1014.6 |
| 20260906011059 | 79 | 205 | 5.0 | 9.0 | 0.00 | 0.00 | 0.00 | 38 | 1014.6 |
| 20260906010558 | 79 | 226 | 5.0 | 9.0 | 0.00 | 0.00 | 0.00 | 38 | 1014.6 |
| 20260906010057 | 79 | 285 | 4.0 | 9.0 | 0.00 | 0.00 | 0.00 | 38 | 1014.5 |
| 20260906005557 | 79 | 219 | 4.0 | 9.0 | 0.00 | 0.00 | 0.00 | 38 | 1014.6 |
| 20260906005100 | 79 | 221 | 5.0 | 11.0 | 0.00 | 0.00 | 0.00 | 38 | 1014.6 |
| 20260906004557 | 79 | 209 | 5.0 | 11.0 | 0.00 | 0.00 | 0.00 | 38 | 1014.6 |
| 20260906004056 | 79 | 186 | 5.0 | 10.0 | 0.00 | 0.00 | 0.00 | 37 | 1014.7 |
| 20260906003556 | 79 | 216 | 6.0 | 10.0 | 0.00 | 0.00 | 0.00 | 37 | 1014.7 |
| 20260906003057 | 79 | 206 | 3.0 | 7.0 | 0.00 | 0.00 | 0.00 | 39 | 1014.6 |
| 20260906002559 | 78 | 213 | 5.0 | 7.0 | 0.00 | 0.00 | 0.00 | 37 | 1014.7 |
| 20260906002055 | 79 | 269 | 4.0 | 10.0 | 0.00 | 0.00 | 0.00 | 38 | 1014.6 |
| 20260906001604 | 79 | 215 | 6.0 | 10.0 | 0.00 | 0.00 | 0.00 | 38 | 1014.7 |
| 20260906001057 | 79 | 265 | 5.0 | 13.0 | 0.00 | 0.00 | 0.00 | 38 | 1014.7 |
| 20260906000559 | 78 | 238 | 5.0 | 13.0 | 0.00 | 0.00 | 0.00 | 39 | 1014.8 |
| 20260906000054 | 78 | 170 | 6.0 | 13.0 | 0.00 | 0.00 | 0.00 | 38 | 1014.7 |
| 20260905235556 | 78 | 176 | 9.0 | 13.0 | 0.00 | 0.00 | 0.00 | 38 | 1014.7 |
| 20260905235053 | 79 | 211 | 4.0 | 10.0 | 0.00 | 0.00 | 0.00 | 40 | 1014.7 |
| 20260905234553 | 79 | 269 | 5.0 | 11.0 | 0.00 | 0.00 | 0.00 | 39 | 1014.7 |
| 20260905234052 | 79 | 236 | 7.0 | 11.0 | 0.00 | 0.00 | 0.00 | 40 | 1014.8 |
| 20260905233552 | 80 | 276 | 8.0 | 11.0 | 0.00 | 0.00 | 0.00 | 37 | 1014.7 |
| 20260905233059 | 79 | 242 | 6.0 | 10.0 | 0.00 | 0.00 | 0.00 | 38 | 1014.7 |
| 20260905232552 | 79 | 231 | 7.0 | 10.0 | 0.00 | 0.00 | 0.00 | 39 | 1014.7 |
| 20260905232051 | 80 | 190 | 4.0 | 9.0 | 0.00 | 0.00 | 0.00 | 38 | 1014.6 |
| 20260905231551 | 80 | 185 | 4.0 | 8.0 | 0.00 | 0.00 | 0.00 | 39 | 1014.6 |
| 20260905231049 | 79 | 222 | 5.0 | 10.0 | 0.00 | 0.00 | 0.00 | 40 | 1014.7 |
| 20260905230548 | 79 | 230 | 5.0 | 10.0 | 0.00 | 0.00 | 0.00 | 41 | 1014.7 |
| 20260905230050 | 78 | 176 | 5.0 | 8.0 | 0.00 | 0.00 | 0.00 | 40 | 1014.7 |
| 20260905225547 | 78 | 159 | 4.0 | 10.0 | 0.00 | 0.00 | 0.00 | 40 | 1014.9 |
| 20260905225046 | 78 | 190 | 8.0 | 10.0 | 0.00 | 0.00 | 0.00 | 40 | 1015.0 |
| 20260905224610 | 79 | 155 | 2.0 | 11.0 | 0.00 | 0.00 | 0.00 | 39 | 1015.0 |
| 20260905224046 | 78 | 184 | 6.0 | 11.0 | 0.00 | 0.00 | 0.00 | 39 | 1014.9 |
| 20260905223548 | 78 | 142 | 5.0 | 9.0 | 0.00 | 0.00 | 0.00 | 40 | 1014.9 |
| 20260905223047 | 78 | 158 | 4.0 | 9.0 | 0.00 | 0.00 | 0.00 | 39 | 1015.0 |
| 20260905222546 | 78 | 189 | 4.0 | 10.0 | 0.00 | 0.00 | 0.00 | 39 | 1014.9 |
| 20260905222049 | 79 | 216 | 3.0 | 10.0 | 0.00 | 0.00 | 0.00 | 38 | 1015.0 |
| 20260905221544 | 78 | 231 | 5.0 | 11.0 | 0.00 | 0.00 | 0.00 | 38 | 1015.1 |
| 20260905221045 | 78 | 136 | 4.0 | 11.0 | 0.00 | 0.00 | 0.00 | 38 | 1015.2 |
| 20260905220543 | 78 | 188 | 5.0 | 11.0 | 0.00 | 0.00 | 0.00 | 39 | 1015.1 |
| 20260905220043 | 78 | 202 | 6.0 | 11.0 | 0.00 | 0.00 | 0.00 | 38 | 1015.2 |
| 20260905215543 | 79 | 189 | 4.0 | 9.0 | 0.00 | 0.00 | 0.00 | 37 | 1015.3 |
| 20260905215041 | 78 | 221 | 4.0 | 8.0 | 0.00 | 0.00 | 0.00 | 38 | 1015.4 |
| 20260905214547 | 78 | 213 | 5.0 | 10.0 | 0.00 | 0.00 | 0.00 | 38 | 1015.4 |
| 20260905214041 | 77 | 198 | 4.0 | 12.0 | 0.00 | 0.00 | 0.00 | 40 | 1015.5 |
| 20260905213541 | 78 | 157 | 7.0 | 12.0 | 0.00 | 0.00 | 0.00 | 38 | 1015.5 |
| 20260905213042 | 78 | 215 | 7.0 | 10.0 | 0.00 | 0.00 | 0.00 | 39 | 1015.5 |
| 20260905212542 | 78 | 141 | 5.0 | 10.0 | 0.00 | 0.00 | 0.00 | 37 | 1015.6 |
| 20260905212041 | 78 | 158 | 5.0 | 10.0 | 0.00 | 0.00 | 0.00 | 37 | 1015.6 |
| 20260905211546 | 78 | 171 | 5.0 | 12.0 | 0.00 | 0.00 | 0.00 | 36 | 1015.6 |
| 20260905211038 | 77 | 201 | 4.0 | 9.0 | 0.00 | 0.00 | 0.00 | 39 | 1015.6 |
| 20260905210537 | 76 | 209 | 5.0 | 8.0 | 0.00 | 0.00 | 0.00 | 40 | 1015.6 |
| 20260905210043 | 76 | 273 | 4.0 | 10.0 | 0.00 | 0.00 | 0.00 | 40 | 1015.6 |
| 20260905205536 | 75 | 230 | 4.0 | 10.0 | 0.00 | 0.00 | 0.00 | 39 | 1015.6 |
| 20260905205039 | 75 | 200 | 5.0 | 10.0 | 0.00 | 0.00 | 0.00 | 41 | 1015.7 |
| 20260905204538 | 76 | 190 | 5.0 | 11.0 | 0.00 | 0.00 | 0.00 | 38 | 1015.6 |
| 20260905204038 | 76 | 173 | 4.0 | 13.0 | 0.00 | 0.00 | 0.00 | 37 | 1015.6 |
| 20260905203535 | 76 | 207 | 9.0 | 13.0 | 0.00 | 0.00 | 0.00 | 37 | 1015.7 |
| 20260905203037 | 76 | 176 | 6.0 | 10.0 | 0.00 | 0.00 | 0.00 | 38 | 1015.7 |
| 20260905202533 | 76 | 182 | 5.0 | 11.0 | 0.00 | 0.00 | 0.00 | 39 | 1015.7 |
| 20260905202033 | 75 | 250 | 2.0 | 11.0 | 0.00 | 0.00 | 0.00 | 40 | 1015.7 |
| 20260905201534 | 75 | 159 | 4.0 | 10.0 | 0.00 | 0.00 | 0.00 | 41 | 1015.8 |
| 20260905201032 | 75 | 220 | 6.0 | 9.0 | 0.00 | 0.00 | 0.00 | 42 | 1015.8 |
| 20260905200532 | 75 | 176 | 5.0 | 11.0 | 0.00 | 0.00 | 0.00 | 43 | 1015.9 |
| 20260905200034 | 75 | 203 | 5.0 | 10.0 | 0.00 | 0.00 | 0.00 | 44 | 1016.0 |
| 20260905195531 | 75 | 173 | 6.0 | 9.0 | 0.00 | 0.00 | 0.00 | 44 | 1016.1 |
| 20260905195033 | 75 | 206 | 5.0 | 9.0 | 0.00 | 0.00 | 0.00 | 45 | 1016.1 |
| 20260905194529 | 75 | 227 | 3.0 | 6.0 | 0.00 | 0.00 | 0.00 | 44 | 1016.1 |
| 20260905194028 | 74 | 360 | 1.0 | 11.0 | 0.00 | 0.00 | 0.00 | 46 | 1016.1 |
| 20260905193527 | 73 | 360 | 6.0 | 11.0 | 0.00 | 0.00 | 0.00 | 46 | 1016.3 |
| 20260905193026 | 73 | 360 | 7.0 | 11.0 | 0.00 | 0.00 | 0.00 | 48 | 1016.3 |
| 20260905192525 | 72 | 360 | 3.0 | 13.0 | 0.00 | 0.00 | 0.00 | 48 | 1016.2 |
| 20260905192025 | 72 | 360 | 7.0 | 13.0 | 0.00 | 0.00 | 0.00 | 49 | 1016.4 |
| 20260905191524 | 71 | 360 | 5.0 | 13.0 | 0.00 | 0.00 | 0.00 | 49 | 1016.3 |
| 20260905191026 | 72 | 360 | 7.0 | 13.0 | 0.00 | 0.00 | 0.00 | 52 | 1016.4 |
| 20260905190524 | 72 | 360 | 4.0 | 7.0 | 0.00 | 0.00 | 0.00 | 53 | 1016.3 |
| 20260905190023 | 71 | 271 | 2.0 | 9.0 | 0.00 | 0.00 | 0.00 | 52 | 1016.3 |
| 20260905185520 | 71 | 360 | 6.0 | 9.0 | 0.00 | 0.00 | 0.00 | 53 | 1016.5 |
| 20260905185019 | 71 | 252 | 2.0 | 7.0 | 0.00 | 0.00 | 0.00 | 54 | 1016.5 |
| 20260905184527 | 70 | 360 | 1.0 | 12.0 | 0.00 | 0.00 | 0.00 | 56 | 1016.4 |
| 20260905184018 | 70 | 360 | 9.0 | 12.0 | 0.00 | 0.00 | 0.00 | 55 | 1016.5 |
| 20260905183518 | 70 | 360 | 4.0 | 10.0 | 0.00 | 0.00 | 0.00 | 55 | 1016.4 |
| 20260905183017 | 70 | 360 | 4.0 | 9.0 | 0.00 | 0.00 | 0.00 | 56 | 1016.5 |
| 20260905182515 | 69 | 360 | 6.0 | 9.0 | 0.00 | 0.00 | 0.00 | 57 | 1016.4 |
| 20260905182015 | 69 | 360 | 4.0 | 11.0 | 0.00 | 0.00 | 0.00 | 57 | 1016.4 |
| 20260905181515 | 69 | 273 | 6.0 | 11.0 | 0.00 | 0.00 | 0.00 | 57 | 1016.4 |
| 20260905181013 | 69 | 237 | 4.0 | 9.0 | 0.00 | 0.00 | 0.00 | 59 | 1016.5 |
| 20260905180515 | 68 | 237 | 1.0 | 9.0 | 0.00 | 0.00 | 0.00 | 58 | 1016.4 |
| 20260905180011 | 68 | 180 | 6.0 | 9.0 | 0.00 | 0.00 | 0.00 | 60 | 1016.4 |
| 20260905175510 | 68 | 275 | 4.0 | 8.0 | 0.00 | 0.00 | 0.00 | 60 | 1016.4 |
| 20260905175010 | 68 | 207 | 6.0 | 8.0 | 0.00 | 0.00 | 0.00 | 61 | 1016.3 |
| 20260905174510 | 68 | 236 | 1.0 | 8.0 | 0.00 | 0.00 | 0.00 | 60 | 1016.3 |
| 20260905174009 | 68 | 221 | 4.0 | 8.0 | 0.00 | 0.00 | 0.00 | 60 | 1016.2 |
| 20260905173509 | 68 | 229 | 3.0 | 7.0 | 0.00 | 0.00 | 0.00 | 60 | 1016.3 |
| 20260905173008 | 67 | 270 | 4.0 | 6.0 | 0.00 | 0.00 | 0.00 | 60 | 1016.3 |
| 20260905172508 | 67 | 235 | 2.0 | 6.0 | 0.00 | 0.00 | 0.00 | 60 | 1016.2 |
| 20260905172009 | 67 | 252 | 3.0 | 6.0 | 0.00 | 0.00 | 0.00 | 62 | 1016.2 |
| 20260905171505 | 66 | 191 | 2.0 | 7.0 | 0.00 | 0.00 | 0.00 | 62 | 1016.2 |
| 20260905171004 | 66 | 225 | 4.0 | 7.0 | 0.00 | 0.00 | 0.00 | 63 | 1016.1 |
| 20260905170503 | 66 | 261 | 2.0 | 6.0 | 0.00 | 0.00 | 0.00 | 63 | 1016.3 |
| 20260905170003 | 65 | 254 | 3.0 | 7.0 | 0.00 | 0.01 | 0.00 | 63 | 1016.3 |
| 20260905165501 | 65 | 238 | 1.0 | 7.0 | 0.00 | 0.01 | 0.00 | 64 | 1016.2 |
| 20260905165001 | 65 | 266 | 5.0 | 7.0 | 0.00 | 0.01 | 0.00 | 65 | 1016.2 |
| 20260905164607 | 65 | 219 | 3.0 | 6.0 | 0.00 | 0.01 | 0.00 | 65 | 1016.1 |
| 20260905164100 | 65 | 176 | 0.0 | 6.0 | 0.00 | 0.01 | 0.00 | 65 | 1016.0 |
| 20260905163559 | 64 | 360 | 0.0 | 2.0 | 0.00 | 0.01 | 0.00 | 65 | 1016.0 |
| 20260905163108 | 64 | 360 | 1.0 | 2.0 | 0.00 | 0.01 | 0.00 | 66 | 1016.0 |
| 20260905162557 | 64 | 360 | 0.0 | 2.0 | 0.00 | 0.01 | 0.00 | 67 | 1016.1 |
| 20260905162056 | 63 | 360 | 0.0 | 4.0 | 0.00 | 0.01 | 0.00 | 68 | 1016.1 |
| 20260905161606 | 62 | 360 | 1.0 | 4.0 | 0.00 | 0.01 | 0.00 | 68 | 1016.1 |
| 20260905161056 | 62 | 360 | 0.0 | 4.0 | 0.00 | 0.01 | 0.00 | 69 | 1016.2 |
| 20260905160556 | 61 | 360 | 1.0 | 4.0 | 0.00 | 0.01 | 0.00 | 69 | 1016.2 |
| 20260905160054 | 61 | 360 | 0.0 | 2.0 | 0.00 | 0.01 | 0.00 | 69 | 1016.3 |
| 20260905155554 | 61 | 360 | 0.0 | 2.0 | 0.00 | 0.01 | 0.00 | 70 | 1016.3 |
| 20260905155054 | 60 | 360 | 0.0 | 2.0 | 0.00 | 0.01 | 0.00 | 72 | 1016.3 |
| 20260905154602 | 59 | 360 | 0.0 | 2.0 | 0.00 | 0.01 | 0.00 | 71 | 1016.4 |
| 20260905154055 | 59 | 360 | 0.0 | 2.0 | 0.00 | 0.01 | 0.00 | 73 | 1016.3 |
| 20260905153552 | 59 | 360 | 0.0 | 4.0 | 0.00 | 0.01 | 0.00 | 74 | 1016.3 |
| 20260905153053 | 58 | 310 | 1.0 | 4.0 | 0.00 | 0.01 | 0.00 | 75 | 1016.4 |
| 20260905152552 | 58 | 302 | 0.0 | 2.0 | 0.00 | 0.01 | 0.00 | 76 | 1016.2 |
| 20260905152051 | 57 | 274 | 1.0 | 2.0 | 0.00 | 0.01 | 0.00 | 76 | 1016.2 |
| 20260905151551 | 57 | 360 | 0.0 | 1.0 | 0.00 | 0.01 | 0.00 | 77 | 1016.1 |
| 20260905151051 | 56 | 360 | 0.0 | 1.0 | 0.00 | 0.01 | 0.00 | 78 | 1016.1 |
| 20260905150550 | 56 | 242 | 0.0 | 1.0 | 0.00 | 0.01 | 0.00 | 79 | 1016.2 |
| 20260905150052 | 55 | 202 | 0.0 | 1.0 | 0.00 | 0.01 | 0.00 | 80 | 1016.2 |
| 20260905145550 | 55 | 52 | 0.0 | 0.0 | 0.00 | 0.01 | 0.00 | 80 | 1016.1 |
| 20260905145049 | 55 | 53 | 0.0 | 1.0 | 0.00 | 0.01 | 0.00 | 80 | 1016.2 |
| 20260905144550 | 55 | 55 | 0.0 | 1.0 | 0.00 | 0.01 | 0.00 | 80 | 1016.1 |
| 20260905144048 | 55 | 51 | 0.0 | 1.0 | 0.00 | 0.01 | 0.00 | 79 | 1016.0 |
| 20260905143548 | 55 | 20 | 0.0 | 1.0 | 0.00 | 0.01 | 0.00 | 79 | 1016.1 |
| 20260905143047 | 55 | 306 | 0.0 | 2.0 | 0.00 | 0.01 | 0.00 | 78 | 1016.0 |
| 20260905142548 | 55 | 263 | 0.0 | 2.0 | 0.00 | 0.01 | 0.00 | 77 | 1016.0 |
| 20260905142047 | 56 | 281 | 0.0 | 5.0 | 0.00 | 0.01 | 0.00 | 76 | 1016.0 |
| 20260905141544 | 56 | 281 | 2.0 | 7.0 | 0.00 | 0.01 | 0.00 | 75 | 1015.9 |
| 20260905141042 | 57 | 281 | 4.0 | 7.0 | 0.00 | 0.01 | 0.00 | 73 | 1015.8 |
| 20260905140542 | 59 | 261 | 2.0 | 6.0 | 0.00 | 0.01 | 0.00 | 70 | 1015.8 |
| 20260905140041 | 59 | 28 | 3.0 | 6.0 | 0.00 | 0.01 | 0.00 | 70 | 1015.6 |
| 20260905135541 | 59 | 71 | 2.0 | 5.0 | 0.00 | 0.01 | 0.00 | 71 | 1015.5 |
| 20260905135041 | 58 | 57 | 2.0 | 5.0 | 0.00 | 0.01 | 0.00 | 71 | 1015.4 |
| 20260905134541 | 58 | 54 | 2.0 | 5.0 | 0.00 | 0.01 | 0.00 | 71 | 1015.5 |
| 20260905134041 | 58 | 46 | 2.0 | 5.0 | 0.00 | 0.01 | 0.00 | 71 | 1015.4 |
| 20260905133541 | 58 | 75 | 2.0 | 5.0 | 0.00 | 0.01 | 0.00 | 71 | 1015.3 |
| 20260905133041 | 58 | 59 | 2.0 | 5.0 | 0.00 | 0.01 | 0.00 | 71 | 1015.3 |
| 20260905132540 | 58 | 59 | 2.0 | 3.0 | 0.00 | 0.01 | 0.00 | 71 | 1015.4 |
| 20260905132041 | 59 | 53 | 2.0 | 5.0 | 0.00 | 0.01 | 0.00 | 71 | 1015.3 |
| 20260905131538 | 59 | 49 | 2.0 | 5.0 | 0.00 | 0.01 | 0.00 | 71 | 1015.3 |
| 20260905131039 | 59 | 53 | 2.0 | 6.0 | 0.00 | 0.01 | 0.00 | 71 | 1015.2 |
| 20260905130541 | 59 | 54 | 3.0 | 6.0 | 0.00 | 0.01 | 0.00 | 71 | 1015.2 |
| 20260905130038 | 59 | 57 | 3.0 | 6.0 | 0.00 | 0.01 | 0.00 | 71 | 1015.2 |
| 20260905125540 | 59 | 55 | 2.0 | 3.0 | 0.00 | 0.01 | 0.00 | 70 | 1015.2 |
| 20260905125037 | 59 | 60 | 1.0 | 5.0 | 0.00 | 0.01 | 0.00 | 70 | 1015.2 |
| 20260905124536 | 59 | 59 | 2.0 | 5.0 | 0.00 | 0.01 | 0.00 | 70 | 1015.3 |
| 20260905124036 | 59 | 53 | 2.0 | 5.0 | 0.00 | 0.01 | 0.00 | 70 | 1015.3 |
| 20260905123536 | 59 | 53 | 2.0 | 3.0 | 0.00 | 0.01 | 0.00 | 71 | 1015.3 |
| 20260905123036 | 59 | 50 | 2.0 | 5.0 | 0.00 | 0.01 | 0.00 | 71 | 1015.3 |
| 20260905122537 | 59 | 53 | 3.0 | 5.0 | 0.00 | 0.01 | 0.00 | 71 | 1015.4 |
| 20260905122036 | 59 | 55 | 2.0 | 3.0 | 0.00 | 0.01 | 0.00 | 72 | 1015.3 |
| 20260905121537 | 58 | 51 | 1.0 | 3.0 | 0.00 | 0.01 | 0.00 | 72 | 1015.4 |
| 20260905121038 | 58 | 51 | 1.0 | 3.0 | 0.00 | 0.01 | 0.00 | 72 | 1015.3 |
| 20260905120537 | 58 | 50 | 1.0 | 3.0 | 0.00 | 0.01 | 0.00 | 72 | 1015.3 |
| 20260905120034 | 58 | 69 | 1.0 | 4.0 | 0.00 | 0.01 | 0.00 | 73 | 1015.4 |
| 20260905115533 | 58 | 69 | 1.0 | 4.0 | 0.00 | 0.01 | 0.00 | 73 | 1015.4 |
| 20260905115033 | 58 | 69 | 1.0 | 3.0 | 0.00 | 0.01 | 0.00 | 73 | 1015.4 |
| 20260905114533 | 58 | 67 | 1.0 | 4.0 | 0.00 | 0.01 | 0.00 | 73 | 1015.4 |
| 20260905114033 | 58 | 67 | 0.0 | 4.0 | 0.00 | 0.01 | 0.00 | 73 | 1015.4 |
| 20260905113532 | 58 | 67 | 1.0 | 4.0 | 0.00 | 0.01 | 0.00 | 73 | 1015.4 |
| 20260905113031 | 58 | 66 | 1.0 | 4.0 | 0.00 | 0.01 | 0.00 | 74 | 1015.5 |
| 20260905112532 | 58 | 63 | 1.0 | 3.0 | 0.00 | 0.01 | 0.00 | 74 | 1015.5 |
| 20260905112033 | 58 | 62 | 1.0 | 4.0 | 0.00 | 0.01 | 0.00 | 74 | 1015.6 |
| 20260905111531 | 58 | 51 | 1.0 | 4.0 | 0.00 | 0.01 | 0.00 | 74 | 1015.6 |
| 20260905111031 | 58 | 50 | 1.0 | 4.0 | 0.00 | 0.01 | 0.00 | 74 | 1015.7 |
| 20260905110530 | 58 | 51 | 1.0 | 3.0 | 0.00 | 0.01 | 0.00 | 75 | 1015.7 |
| 20260905110030 | 58 | 50 | 2.0 | 5.0 | 0.00 | 0.01 | 0.00 | 75 | 1015.6 |
| 20260905105529 | 58 | 50 | 3.0 | 5.0 | 0.00 | 0.01 | 0.00 | 75 | 1015.7 |
| 20260905105029 | 58 | 53 | 3.0 | 5.0 | 0.00 | 0.01 | 0.00 | 74 | 1015.7 |
| 20260905104531 | 58 | 59 | 2.0 | 5.0 | 0.00 | 0.01 | 0.00 | 73 | 1015.7 |
| 20260905104028 | 58 | 63 | 3.0 | 5.0 | 0.00 | 0.01 | 0.00 | 73 | 1015.7 |
| 20260905103530 | 59 | 77 | 2.0 | 5.0 | 0.00 | 0.01 | 0.00 | 73 | 1015.7 |
| 20260905103028 | 59 | 80 | 3.0 | 4.0 | 0.00 | 0.01 | 0.00 | 73 | 1015.8 |
| 20260905102528 | 58 | 82 | 0.0 | 2.0 | 0.00 | 0.01 | 0.00 | 74 | 1015.9 |
| 20260905102031 | 58 | 82 | 0.0 | 2.0 | 0.00 | 0.01 | 0.00 | 74 | 1015.9 |
| 20260905101532 | 58 | 82 | 0.0 | 2.0 | 0.00 | 0.01 | 0.00 | 74 | 1015.9 |
| 20260905101031 | 58 | 81 | 0.0 | 2.0 | 0.00 | 0.01 | 0.00 | 75 | 1015.9 |
| 20260905100527 | 58 | 81 | 1.0 | 4.0 | 0.00 | 0.01 | 0.00 | 75 | 1016.0 |
| 20260905100058 | 58 | 81 | 1.0 | 4.0 | 0.00 | 0.01 | 0.00 | 75 | 1016.0 |
| 20260905095526 | 57 | 81 | 0.0 | 2.0 | 0.00 | 0.02 | 0.00 | 75 | 1015.9 |
| 20260905095025 | 57 | 81 | 0.0 | 2.0 | 0.00 | 0.02 | 0.00 | 75 | 1016.0 |
| 20260905094527 | 57 | 81 | 0.0 | 1.0 | 0.00 | 0.02 | 0.00 | 75 | 1016.0 |
| 20260905094024 | 58 | 80 | 0.0 | 0.0 | 0.00 | 0.02 | 0.00 | 74 | 1015.9 |
| 20260905093524 | 58 | 80 | 0.0 | 0.0 | 0.00 | 0.02 | 0.00 | 74 | 1016.1 |
| 20260905093023 | 58 | 80 | 0.0 | 0.0 | 0.00 | 0.02 | 0.00 | 74 | 1016.0 |
| 20260905092526 | 58 | 78 | 0.0 | 0.0 | 0.00 | 0.02 | 0.00 | 73 | 1015.9 |
| 20260905092024 | 58 | 78 | 0.0 | 0.0 | 0.00 | 0.02 | 0.00 | 73 | 1016.0 |
| 20260905091521 | 59 | 78 | 0.0 | 0.0 | 0.00 | 0.02 | 0.00 | 73 | 1015.8 |
| 20260905091019 | 59 | 79 | 0.0 | 0.0 | 0.00 | 0.02 | 0.00 | 72 | 1015.9 |
| 20260905090519 | 59 | 79 | 0.0 | 0.0 | 0.00 | 0.02 | 0.00 | 72 | 1015.9 |
| 20260905090019 | 59 | 79 | 0.0 | 0.0 | 0.00 | 0.04 | 0.00 | 72 | 1015.9 |
| 20260905085522 | 59 | 78 | 0.0 | 0.0 | 0.00 | 0.04 | 0.00 | 71 | 1015.9 |
| 20260905085017 | 59 | 78 | 0.0 | 1.0 | 0.00 | 0.04 | 0.00 | 70 | 1015.9 |
| 20260905084516 | 59 | 78 | 0.0 | 1.0 | 0.00 | 0.04 | 0.00 | 70 | 1015.9 |
| 20260905084015 | 60 | 78 | 0.0 | 1.0 | 0.00 | 0.04 | 0.00 | 69 | 1015.9 |
| 20260905083514 | 60 | 78 | 0.0 | 2.0 | 0.00 | 0.04 | 0.00 | 68 | 1015.8 |
| 20260905083012 | 61 | 78 | 0.0 | 4.0 | 0.00 | 0.04 | 0.00 | 67 | 1015.8 |
| 20260905082511 | 61 | 78 | 0.0 | 4.0 | 0.00 | 0.04 | 0.00 | 67 | 1015.8 |
| 20260905082011 | 61 | 78 | 0.0 | 2.0 | 0.00 | 0.04 | 0.00 | 66 | 1015.8 |
| 20260905081509 | 62 | 78 | 0.0 | 2.0 | 0.00 | 0.04 | 0.00 | 65 | 1015.7 |
| 20260905081012 | 62 | 78 | 1.0 | 4.0 | 0.00 | 0.04 | 0.00 | 65 | 1015.6 |
| 20260905080509 | 62 | 78 | 1.0 | 4.0 | 0.00 | 0.04 | 0.00 | 65 | 1015.7 |
| 20260905080009 | 62 | 78 | 1.0 | 4.0 | 0.00 | 0.05 | 0.00 | 65 | 1015.6 |
| 20260905075509 | 62 | 76 | 1.0 | 3.0 | 0.00 | 0.05 | 0.00 | 65 | 1015.6 |
| 20260905075007 | 62 | 76 | 1.0 | 4.0 | 0.00 | 0.05 | 0.00 | 65 | 1015.6 |
| 20260905074507 | 61 | 73 | 1.0 | 3.0 | 0.00 | 0.05 | 0.00 | 65 | 1015.5 |
| 20260905074007 | 62 | 80 | 2.0 | 4.0 | 0.00 | 0.05 | 0.00 | 65 | 1015.6 |
| 20260905073506 | 62 | 82 | 2.0 | 4.0 | 0.00 | 0.05 | 0.00 | 65 | 1015.6 |
| 20260905073009 | 62 | 84 | 2.0 | 4.0 | 0.00 | 0.05 | 0.00 | 65 | 1015.5 |
| 20260905072507 | 62 | 85 | 2.0 | 3.0 | 0.00 | 0.05 | 0.00 | 65 | 1015.6 |
| 20260905072005 | 62 | 87 | 2.0 | 5.0 | 0.00 | 0.05 | 0.00 | 65 | 1015.6 |
| 20260905071505 | 62 | 87 | 2.0 | 5.0 | 0.00 | 0.05 | 0.00 | 65 | 1015.5 |
| 20260905071004 | 62 | 86 | 2.0 | 3.0 | 0.00 | 0.05 | 0.00 | 65 | 1015.5 |
| 20260905070504 | 62 | 57 | 2.0 | 5.0 | 0.00 | 0.05 | 0.00 | 65 | 1015.5 |
| 20260905070004 | 62 | 47 | 2.0 | 5.0 | 0.00 | 0.06 | 0.05 | 65 | 1015.5 |
| 20260905065503 | 62 | 80 | 2.0 | 4.0 | 0.00 | 0.06 | 0.05 | 65 | 1015.5 |
| 20260905065002 | 62 | 85 | 2.0 | 4.0 | 0.00 | 0.06 | 0.05 | 65 | 1015.5 |
| 20260905064502 | 62 | 101 | 2.0 | 3.0 | 0.00 | 0.06 | 0.05 | 65 | 1015.5 |
| 20260905064003 | 62 | 105 | 1.0 | 3.0 | 0.00 | 0.06 | 0.05 | 65 | 1015.5 |
| 20260905063502 | 63 | 105 | 1.0 | 3.0 | 0.00 | 0.06 | 0.05 | 65 | 1015.5 |
| 20260905063002 | 63 | 105 | 1.0 | 3.0 | 0.00 | 0.06 | 0.05 | 64 | 1015.5 |
| 20260905062501 | 63 | 106 | 1.0 | 4.0 | 0.00 | 0.06 | 0.05 | 63 | 1015.5 |
| 20260905062002 | 63 | 107 | 1.0 | 4.0 | 0.00 | 0.06 | 0.05 | 62 | 1015.4 |
| 20260905061502 | 63 | 107 | 2.0 | 5.0 | 0.00 | 0.06 | 0.05 | 62 | 1015.4 |
| 20260905061002 | 64 | 108 | 2.0 | 5.0 | 0.00 | 0.06 | 0.05 | 62 | 1015.5 |
| 20260905060501 | 64 | 138 | 2.0 | 4.0 | 0.00 | 0.06 | 0.05 | 60 | 1015.5 |
| 20260905060003 | 64 | 151 | 1.0 | 2.0 | 0.00 | 0.10 | 0.05 | 59 | 1015.6 |
| 20260905055501 | 64 | 151 | 0.0 | 2.0 | 0.00 | 0.10 | 0.05 | 59 | 1015.5 |
| 20260905055001 | 64 | 151 | 1.0 | 4.0 | 0.00 | 0.10 | 0.05 | 58 | 1015.6 |
| 20260905054503 | 64 | 152 | 1.0 | 3.0 | 0.00 | 0.10 | 0.05 | 57 | 1015.7 |
| 20260905054100 | 64 | 152 | 1.0 | 5.0 | 0.00 | 0.10 | 0.05 | 57 | 1015.6 |
| 20260905053600 | 64 | 155 | 1.0 | 5.0 | 0.00 | 0.10 | 0.05 | 57 | 1015.6 |
| 20260905053101 | 64 | 156 | 0.0 | 5.0 | 0.00 | 0.10 | 0.05 | 58 | 1015.6 |
| 20260905052601 | 64 | 165 | 2.0 | 6.0 | 0.00 | 0.10 | 0.05 | 61 | 1015.7 |
| 20260905052100 | 64 | 152 | 2.0 | 6.0 | 0.00 | 0.10 | 0.05 | 61 | 1015.6 |
| 20260905051600 | 63 | 142 | 1.0 | 5.0 | 0.00 | 0.10 | 0.05 | 62 | 1015.7 |
| 20260905051059 | 63 | 150 | 1.0 | 4.0 | 0.00 | 0.10 | 0.05 | 62 | 1015.7 |
| 20260905050559 | 63 | 167 | 0.0 | 7.0 | 0.00 | 0.10 | 0.05 | 63 | 1015.7 |
| 20260905050100 | 63 | 140 | 4.0 | 8.0 | 0.00 | 0.10 | 0.05 | 64 | 1015.7 |
| 20260905045559 | 65 | 197 | 3.0 | 6.0 | 0.00 | 0.12 | 0.05 | 61 | 1015.8 |
| 20260905045059 | 66 | 90 | 2.0 | 5.0 | 0.00 | 0.12 | 0.05 | 59 | 1015.6 |
| 20260905044608 | 66 | 78 | 1.0 | 4.0 | 0.00 | 0.12 | 0.05 | 59 | 1015.6 |
| 20260905044058 | 66 | 74 | 1.0 | 4.0 | 0.00 | 0.12 | 0.05 | 59 | 1015.5 |
| 20260905043600 | 66 | 71 | 1.0 | 3.0 | 0.00 | 0.12 | 0.05 | 58 | 1015.4 |
| 20260905043104 | 66 | 63 | 2.0 | 4.0 | 0.00 | 0.12 | 0.05 | 58 | 1015.4 |
| 20260905042557 | 66 | 344 | 1.0 | 5.0 | 0.00 | 0.12 | 0.05 | 58 | 1015.3 |
| 20260905042058 | 66 | 344 | 1.0 | 3.0 | 0.00 | 0.12 | 0.05 | 58 | 1015.2 |
| 20260905041602 | 66 | 344 | 1.0 | 3.0 | 0.00 | 0.12 | 0.05 | 58 | 1015.2 |
| 20260905041057 | 66 | 344 | 1.0 | 4.0 | 0.00 | 0.12 | 0.05 | 57 | 1015.3 |
| 20260905040557 | 67 | 344 | 1.0 | 4.0 | 0.00 | 0.12 | 0.05 | 57 | 1015.2 |
| 20260905040108 | 67 | 344 | 1.0 | 4.0 | 0.00 | 0.12 | 0.05 | 56 | 1015.1 |
| 20260905035557 | 68 | 344 | 1.0 | 3.0 | 0.00 | 0.14 | 0.05 | 56 | 1015.1 |
| 20260905035056 | 68 | 344 | 1.0 | 2.0 | 0.00 | 0.14 | 0.05 | 55 | 1015.0 |
| 20260905034603 | 68 | 344 | 1.0 | 3.0 | 0.00 | 0.14 | 0.05 | 52 | 1015.0 |
| 20260905034057 | 69 | 344 | 2.0 | 5.0 | 0.00 | 0.14 | 0.05 | 53 | 1015.0 |
| 20260905033555 | 69 | 344 | 4.0 | 5.0 | 0.00 | 0.14 | 0.05 | 52 | 1014.9 |
| 20260905033055 | 69 | 344 | 3.0 | 5.0 | 0.00 | 0.14 | 0.05 | 52 | 1014.9 |
| 20260905032558 | 69 | 344 | 3.0 | 4.0 | 0.00 | 0.14 | 0.05 | 52 | 1014.8 |
| 20260905032055 | 69 | 344 | 2.0 | 3.0 | 0.00 | 0.14 | 0.05 | 53 | 1014.8 |
| 20260905031556 | 69 | 344 | 2.0 | 3.0 | 0.00 | 0.14 | 0.05 | 53 | 1014.7 |
| 20260905031054 | 69 | 344 | 1.0 | 4.0 | 0.00 | 0.14 | 0.05 | 53 | 1014.7 |
| 20260905030555 | 69 | 344 | 1.0 | 4.0 | 0.00 | 0.14 | 0.05 | 53 | 1014.7 |
| 20260905030055 | 69 | 344 | 1.0 | 2.0 | 0.00 | 0.14 | 0.05 | 53 | 1014.7 |
| 20260905025555 | 69 | 344 | 1.0 | 3.0 | 0.00 | 0.14 | 0.05 | 52 | 1014.7 |
| 20260905025054 | 70 | 344 | 1.0 | 3.0 | 0.00 | 0.14 | 0.05 | 52 | 1014.6 |
| 20260905024602 | 70 | 344 | 1.0 | 5.0 | 0.00 | 0.14 | 0.05 | 52 | 1014.5 |
| 20260905024053 | 70 | 344 | 2.0 | 5.0 | 0.00 | 0.14 | 0.05 | 52 | 1014.6 |
| 20260905023553 | 70 | 344 | 3.0 | 5.0 | 0.00 | 0.14 | 0.05 | 51 | 1014.5 |
| 20260905023052 | 71 | 344 | 3.0 | 5.0 | 0.00 | 0.14 | 0.05 | 50 | 1014.5 |